Back to catalog

STARLINK-3776

AliveCommunicationsVLEO
NORAD 52288·PAYLOAD·🇺🇸 United States

Launched Apr 21, 2022 from Cape Canaveral Space Force Station

Loading…

Next Passes (next 24 hours)

TLE

FreshSource: CelesTrak SupGP

Epoch: Sep 15, 2026, 02:47 UTC

1 52288C 22041AD  26258.11645833  .00041316  00000+0  12201-2 0  2588
2 52288  53.1575 316.5648 0001336  95.8150 283.4160 15.34385223    18

Track STARLINK-3776 in real time with AllMySat

Download on the App Store